STARLINK-1255, 45399

Orbit data source: Space-Track

STARLINK-1255, 45399 is a payload satellite owned by SpaceX/Seattle (US) in LEO that was launched on Wed, 18 Mar 2020 UTC via an FALCON 9 launch vehicle from the Air Force Eastern Test Range (AFETR). Payload-class satellites include a variety of spacecraft equipped with specific instruments for various scientific and technological missions. These include communications satellites like Starlink; space stations such as the ISS; scientific satellites like the Hubble; Earth observation satellites from companies like Planet Labs, Umbra, and HawkEye 360; GPS; miniature CubeSats for education and research; and military/defense satellites.

Loading next visibility...
Identifier
45399, 2020-019AR
Orbit
LEO
Country
Flag of USUS
Related business
Manufacturer
SpaceX/Seattle
Mission
Operational Commercial Communications
Bus & Motor
STARLINK, Unknown motor
Mass
260 kg wet, ~248 kg dry
Launch date (UTC)
2020-03-18 (6 years ago)
Launch vehicle
FALCON 9
Launch site
Air Force Eastern Test Range (AFETR)
Object type
Payload
Rocket body
Debris
Shape & HBR
Box + 1 Pan, 10.1 m
Radar Cross Section
13.562 m², Large (>1 m²)

Expand to show TLE details & history
Last TLE update: 4 hours ago

TLE from 4 hours ago
0 STARLINK-1255
1 45399U 20019AR  25291.33336806  .01803289  00000-0  69973-1 0  9999
2 45399  53.0538  55.2331 0001546 101.3364 293.0772 15.22503765  5897
Epoch: 2025-10-18T08:00Z
TLE epoch observation values (Epoch: 2025-10-18T08:00:03.000Z)
Latitude
26.91798°
Longitude
-69.52744°
Altitude
499.098 km
Speed
7.619 km/s
True Right ascension
05h 10m 12s
True Declination
26° 46' 27"
Sunlit
Object was in full shadow at epoch
Visualization orbit readout
Latitude
Unknown
Longitude
Unknown
Altitude
Unknown
Speed
Unknown
Apparent Right ascension
Unknown
Apparent Declination
Unknown
Sunlit
N/A
Visualization observer readout
Local Sidereal Time
06:52:21
Azimuth
Unknown
Elevation
Unknown
Doppler factor
Unknown
Orbital elements
Apogee altitude
499.627 km
Perigee altitude
497.501 km
Semi-major axis
6,876.701 km
Eccentricity
0.00015
Inclination
53.0538°
RAAN
55.2331°
Arg. of periapsis
101.3364°
True anomaly
293.0609°
Mean anomaly
293.0772°
Eccentric anomaly
293.06905°
Mean motion
3.80604 °/min
Orbital period
94.59 mins
BSTAR
0.069973
Loading maneuver chart data...
Computing Atmospheric mass density...

Documentation

Showing up to 5 results
|